Glendive, MT

11:07 AM MST on December 05, 2019 (GMT -0700)
Dawson Community

Weather History for KGDV - November, 2019

Change the Weather History Date:

Sunday, November 17, 2019

  Actual Average Record
Temperature  
Mean Temperature 39 °F -  
Max Temperature 49 °F 37 °F 61 °F (2009)
Min Temperature 28 °F 18 °F -5 °F (1996)
Degree Days  
Heating Degree Days 26    
Month to date heating degree days 647  
Year to date heating degree days 7322  
Moisture  
Dew Point 32 °F    
Average Humidity 77    
Maximum Humidity 92    
Minimum Humidity 58    
Precipitation  
Precipitation 0.00 in - - ()
Month to date precipitation 0.28  
Year to date precipitation 18.06  
Sea Level Pressure  
Sea Level Pressure 29.87 in    
Wind  
Wind Speed 9 mph (SW)    
Max Wind Speed 15 mph    
Max Gust Speed -    
Visibility 10 miles    
Events      
Averages and records for this station are not official NWS values.
T = Trace of Precipitation, MM = Missing Value Source: NWS Daily Summary

Daily Weather History Graph

Daily Weather History Graph

Search for Another Location

Airport or City:

Astronomy

Nov. 17, 2019 Rise Set
Actual Time 7:05 AM MST 4:22 PM MST
Civil Twilight 6:32 AM MST 4:55 PM MST
Nautical Twilight 5:55 AM MST 5:32 PM MST
Astronomical Twilight 5:18 AM MST 6:08 PM MST
Moon 8:56 PM MST (11/17) 11:59 AM MST (11/17)
Length of Visible Light 10h 23m
Length of Day
9h 16m
Waning Gibbous, 73% of the Moon is Illuminated
Nov 17
Waning Gibbous
Nov 19
Last Quarter
Nov 26
New
Dec 3
First Quarter
Dec 11
Full

Hourly Weather History & Observations

Time (MST) Temp. Windchill Dew Point Humidity Pressure Visibility Wind Dir Wind Speed Gust Speed Precip Events Conditions
12:56 AM 30.0 °F 23.2 °F 27.0 °F 88% 30.13 in 10.0 mi SW 6.9 mph - N/A   Clear
1:56 AM 30.0 °F 21.1 °F 28.0 °F 92% 30.09 in 10.0 mi SW 10.4 mph - N/A   Clear
3:56 AM 30.0 °F 21.7 °F 28.0 °F 92% 30.07 in 10.0 mi SW 9.2 mph - N/A   Clear
4:56 AM 28.0 °F 22.8 °F 26.1 °F 92% 30.06 in 10.0 mi South 4.6 mph - N/A   Clear
5:56 AM 28.9 °F 19.8 °F 27.0 °F 92% 30.04 in 10.0 mi South 10.4 mph - N/A   Clear
6:56 AM 28.9 °F 19.2 °F 27.0 °F 92% 30.02 in 10.0 mi South 11.5 mph - N/A   Clear
7:56 AM 30.9 °F 24.3 °F 28.9 °F 92% 30.00 in 10.0 mi South 6.9 mph - N/A   Clear
8:56 AM 32.0 °F 23.0 °F 30.0 °F 92% 29.98 in 10.0 mi SSW 11.5 mph - N/A   Clear
9:56 AM 35.1 °F 26.9 °F 30.9 °F 85% 29.95 in 10.0 mi South 11.5 mph - N/A   Clear
11:56 AM 41.0 °F 33.9 °F 30.9 °F 67% 29.88 in 10.0 mi South 12.7 mph - N/A   Overcast
12:56 PM 42.1 °F 35.2 °F 30.0 °F 62% 29.83 in 10.0 mi SSW 12.7 mph - N/A   Partly Cloudy
1:56 PM 44.1 °F 38.6 °F 30.0 °F 58% 29.81 in 10.0 mi SW 10.4 mph - N/A   Mostly Cloudy
2:56 PM 45.0 °F 39.3 °F 32.0 °F 60% 29.78 in 10.0 mi SW 11.5 mph - N/A   Scattered Clouds
3:56 PM 45.0 °F 40.1 °F 33.1 °F 63% 29.78 in 10.0 mi SW 9.2 mph - N/A   Overcast
4:56 PM 44.1 °F 39.0 °F 33.1 °F 65% 29.77 in 10.0 mi SSW 9.2 mph - N/A   Overcast
5:56 PM 43.0 °F 38.2 °F 34.0 °F 71% 29.76 in 10.0 mi SSW 8.1 mph - N/A   Overcast
6:56 PM 42.1 °F 37.1 °F 34.0 °F 73% 29.74 in 10.0 mi SW 8.1 mph - N/A   Partly Cloudy
7:56 PM 46.9 °F - 37.9 °F 71% 29.73 in 10.0 mi WSW 9.2 mph - N/A   Scattered Clouds
8:56 PM 46.0 °F 41.4 °F 37.9 °F 73% 29.72 in 10.0 mi West 9.2 mph - N/A   Partly Cloudy
9:56 PM 48.9 °F - 39.9 °F 71% 29.70 in 10.0 mi West 12.7 mph - N/A   Partly Cloudy
10:56 PM 46.0 °F 39.9 °F 39.0 °F 76% 29.70 in 10.0 mi West 13.8 mph - N/A   Clear
11:56 PM 46.9 °F - 39.0 °F 74% 29.69 in 10.0 mi West 15.0 mph - N/A   Mostly Cloudy